Regional Weather Roundup
Issued by NWS

Current Version | Previous Version | Text Only | Print | Product List | Glossary Off
Versions: 1 2 3 4 5 6 7 8 9 10 11 12 13 14 15 16 17 18 19 20 21 22 23 24 25 26 27 28 29 30 31 32 33 34 35 36 37 38 39 40 41 42 43 44 45 46 47 48 49 50

000
ASUS44 KBMX 181910
RWRAL

ALABAMA REGIONAL WEATHER ROUNDUP
NATIONAL WEATHER SERVICE BIRMINGHAM AL
100 PM CST SAT NOV 18 2017

NOTE: "FAIR" INDICATES FEW OR NO CLOUDS BELOW 12,000 FEET
WITH NO SIGNIFICANT WEATHER AND/OR OBSTRUCTIONS TO VISIBILITY.

THE REMARK "TC" DENOTES TEMPERATURE IN DEGREES CELSIUS.

ALZ001>011-014-016>018-020-182000-
NORTH ALABAMA

CITY           SKY/WX    TMP DP  RH WIND       PRES   REMARKS
MUSCLE SHOALS  CLOUDY    70  60  70 SW17G29   29.66F
HUNTSVILLE     CLOUDY    71  62  73 SW16G28   29.69F
DECATUR        CLOUDY    69  61  75 S20G29    29.69F
HALEYVILLE     LGT RAIN  67  64  90 S14G22    29.72F
GADSDEN        CLOUDY    68  62  81 SW7G17    29.78F
$$

ALZ012-013-022-023-030>036-040>044-182000-
WEST CENTRAL ALABAMA

CITY           SKY/WX    TMP DP  RH WIND       PRES   REMARKS
TUSCALOOSA     CLOUDY    76  64  66 S17G25    29.77F
DEMOPOLIS        N/A     76  60  57 S12G22    29.80R
$$

ALZ015-024>026-033>036-041>044-182000-
CENTRAL ALABAMA

CITY           SKY/WX    TMP DP  RH WIND       PRES   REMARKS
BIRMINGHAM     CLOUDY    72  60  66 SW15G21   29.80F
MONTGOMERY     CLOUDY    76  61  59 S12G21    29.83F
SHELBY CO ARPT CLOUDY    73  62  68 SW13G23   29.80F
MAXWELL AFB    CLOUDY    75  62  64 S12       29.82F
GREENVILLE     PTSUNNY   74  61  63 SW9       29.83F
SELMA          MOCLDY    77  63  61 S15       29.80F
PRATTVILLE     CLOUDY    73  63  69 S12       29.82F
BESSEMER       CLOUDY    71  62  73 SW10      29.80F
TALLADEGA      CLOUDY    70  60  70 SW17G25   29.81F
PELL CITY      MOCLDY    72  63  73 S16G23    29.79F
MARION         CLOUDY    76  61  59 SW21      29.79F
SYLACAUGA      CLOUDY    72  63  73 S15G24    29.81F
$$

ALZ019-021-028-029-037-038-045>048-182000-
EAST CENTRAL ALABAMA

CITY           SKY/WX    TMP DP  RH WIND       PRES   REMARKS
ANNISTON       CLOUDY    70  59  68 SW18G24   29.80F
ALEXANDER CITY CLOUDY    70  61  72 S16       29.82F
AUBURN         CLOUDY    69  59  70 S14       29.87F
$$

ALZ051>064-182000-
SOUTHWEST ALABAMA

CITY           SKY/WX    TMP DP  RH WIND       PRES   REMARKS
MOBILE         PTSUNNY   79  62  56 SW14G24   29.87F
BROOKLEY FIELD MOSUNNY   80  62  54 SW14G25   29.89F
EVERGREEN      PTSUNNY   76  63  64 SW12      29.86F
$$

ALZ049-050-065>069-182000-
SOUTHEAST ALABAMA

CITY           SKY/WX    TMP DP  RH WIND       PRES   REMARKS
DOTHAN         CLOUDY    76  60  57 S16G23    29.93F
OZARK          PTSUNNY   76  60  57 S14G22    29.89F
TROY           CLOUDY    73  61  65 S13G21    29.87F
EUFAULA        PTSUNNY   76  59  55 VRB7      29.87F
$$



USA.gov is the U.S. government's official web portal to all federal, state and local government web resources and services.